Location: Zagreb
(45.8000°N, 16.0000°E)
Time: 16:32:15
(UTC+02:00)

Tiros 1 - Visible Passes

Search period start: 14 July 2024 00:00
Search period end: 24 July 2024 00:00
Orbit: 624 x 656 km, 48.4° (Epoch: 13 July)

Date Brightness Start Highest point End Pass type
(mag) Time Alt. Az. Time Alt. Az. Time Alt. Az.
14 Jul 7.7 22:00:08 10° WNW 22:04:30 44° SSW 22:07:40 17° SSE visible
15 Jul 8.6 22:24:22 10° W 22:28:04 24° SW 22:30:13 17° S visible
16 Jul 9.3 22:49:42 10° WSW 22:51:26 12° SW 22:52:49 11° SSW visible
17 Jul 8.5 21:29:54 10° W 21:33:47 27° SW 21:37:39 10° SSE visible
18 Jul 9.3 21:54:48 10° WSW 21:57:11 14° SW 21:59:33 10° SSW visible
